Weather History for Vicksburg, MS

Change the Weather History Date:

Wednesday, April 17, 2013

  Actual Average Record
Temperature  
Mean Temperature 79 °F 65 °F  
Max Temperature 88 °F 76 °F 91 °F (2006)
Min Temperature 69 °F 53 °F 32 °F (1951)
Degree Days  
Heating Degree Days 0 3  
Month to date heating degree days 71 74  
Since 1 July heating degree days 2227 2315  
Cooling Degree Days 14 3  
Month to date cooling degree days 69 39  
Year to date cooling degree days 94 71  
Growing Degree Days 28 (Base 50)    
Moisture  
Dew Point 69 °F    
Average Humidity 75    
Maximum Humidity 100    
Minimum Humidity 50    
Precipitation  
Precipitation 0.00 in 0.17 in 2.31 in (2012)
Month to date precipitation 2.37 2.83  
Year to date precipitation 28.16 18.20  
Sea Level Pressure  
Sea Level Pressure 30.01 in    
Wind  
Wind Speed 11 mph (SSE)    
Max Wind Speed 23 mph    
Max Gust Speed 29 mph    
Visibility 9 miles    
Events      
T = Trace of Precipitation, MM = Missing Value Source: NWS Daily Summary

Daily Weather History Graph

Daily Weather History Graph

Search for Another Location

Airport:

Trip Planner

Search our weather history database for the weather conditions in past years. The results will help you decide how hot, cold, wet, or windy it might be!

Date:

Astronomy

Apr. 17, 2013 Rise Set
Actual Time 6:32 AM CDT 7:35 PM CDT
Civil Twilight 6:06 AM CDT 8:00 PM CDT
Nautical Twilight 5:37 AM CDT 8:30 PM CDT
Astronomical Twilight 5:06 AM CDT 9:01 PM CDT
Moon 11:52 AM CDT (4/17) 1:06 AM CDT (4/17)
Length of Visible Light 13h 53m
Length of Day
13h 03m
Waxing Crescent, 42% of the Moon is Illuminated
Apr 17
Waxing Crescent
Apr 18
First Quarter
Apr 25
Full
May 2
Last Quarter
May 9
New

Hourly Weather History & Observations

Time (CDT) Temp. Heat Index Dew Point Humidity Pressure Visibility Wind Dir Wind Speed Gust Speed Precip Events Conditions
12:53 AM 73.9 °F - 70.0 °F 87% 30.07 in 10.0 mi SSE 9.2 mph - N/A   Clear
1:53 AM 73.0 °F - 70.0 °F 90% 30.06 in 10.0 mi SSE 8.1 mph - N/A   Clear
2:53 AM 72.0 °F - 69.1 °F 91% 30.05 in 9.0 mi ESE 5.8 mph - N/A   Clear
3:53 AM 71.1 °F - 69.1 °F 93% 30.05 in 8.0 mi ESE 3.5 mph - N/A   Clear
4:53 AM 70.0 °F - 69.1 °F 97% 30.05 in 7.0 mi ESE 4.6 mph - N/A   Clear
5:53 AM 70.0 °F - 68.0 °F 93% 30.06 in 6.0 mi ESE 5.8 mph - N/A   Clear
6:41 AM 69.8 °F - 68.0 °F 94% 30.05 in 5.0 mi SE 4.6 mph - N/A   Mostly Cloudy
6:53 AM 70.0 °F - 69.1 °F 97% 30.08 in 5.0 mi SSE 3.5 mph - N/A   Overcast
7:53 AM 72.0 °F - 69.1 °F 91% 30.09 in 7.0 mi SE 5.8 mph - N/A   Overcast
9:31 AM 73.4 °F - 69.8 °F 88% 30.08 in 10.0 mi SSE 6.9 mph - N/A   Scattered Clouds
9:53 AM 73.9 °F - 70.0 °F 87% 30.10 in 10.0 mi SE 8.1 mph - N/A   Partly Cloudy
10:53 AM 77.0 °F - 69.1 °F 76% 30.10 in 10.0 mi SE 6.9 mph - N/A   Clear
11:53 AM 79.0 °F - 69.1 °F 72% 30.08 in 10.0 mi SSE 10.4 mph - N/A   Scattered Clouds
12:53 PM 82.0 °F 85.9 °F 70.0 °F 67% 30.04 in 10.0 mi SE 15.0 mph 19.6 mph N/A   Partly Cloudy
1:53 PM 82.9 °F 85.4 °F 66.9 °F 58% 30.03 in 10.0 mi SSE 13.8 mph 21.9 mph N/A   Clear
2:53 PM 87.1 °F 90.6 °F 68.0 °F 53% 29.99 in 10.0 mi South 16.1 mph 27.6 mph N/A   Clear
3:53 PM 87.1 °F 89.9 °F 66.9 °F 51% 29.96 in 10.0 mi South 16.1 mph 25.3 mph N/A   Clear
4:53 PM 87.1 °F 90.6 °F 68.0 °F 53% 29.94 in 10.0 mi South 18.4 mph 26.5 mph N/A   Partly Cloudy
5:53 PM 84.9 °F 87.6 °F 66.9 °F 55% 29.93 in 10.0 mi SSE 13.8 mph 23.0 mph N/A   Clear
6:53 PM 82.0 °F 84.9 °F 68.0 °F 62% 29.91 in 10.0 mi SSE 11.5 mph - N/A   Clear
7:53 PM 80.1 °F 82.7 °F 68.0 °F 67% 29.91 in 10.0 mi SSE 13.8 mph - N/A   Clear
8:53 PM 78.1 °F - 69.1 °F 74% 29.92 in 10.0 mi SSE 11.5 mph - N/A   Clear
9:53 PM 77.0 °F - 69.1 °F 76% 29.91 in 10.0 mi SSE 16.1 mph 21.9 mph N/A   Clear
10:53 PM 75.9 °F - 69.1 °F 79% 29.92 in 10.0 mi SSE 15.0 mph - N/A   Clear
11:53 PM 75.0 °F - 69.1 °F 82% 29.92 in 10.0 mi SSE 12.7 mph 25.3 mph N/A   Clear